Regional Weather Roundup
Issued by NWS Sioux Falls, SD

Home | Current Version | Previous Version | Text Only | Print | Product List | Glossary On
Versions: 1 2 3 4 5 6 7 8 9 10 11 12 13 14 15 16 17 18 19 20 21 22 23 24 25 26 27 28 29 30 31 32 33 34 35 36 37 38 39 40 41 42 43 44 45 46 47 48 49 50
000
ASUS43 KFSD 221102
RWRFSD

WEATHER ROUNDUP FOR SE SOUTH DAKOTA/SW MINNESOTA/NW IOWA
NATIONAL WEATHER SERVICE SIOUX FALLS SD
600 AM CDT FRI SEP 22 2017

NOTE: "FAIR" INDICATES FEW OR NO CLOUDS BELOW 12,000 FEET WITH NO
SIGNIFICANT WEATHER AND OR OBSTRUCTIONS TO VISIBILITY.


SDZ038>040-050-052>070-221200-
SOUTHEAST SOUTH DAKOTA

CITY           SKY/WX    TMP DP  RH WIND       PRES   REMARKS
BROOKINGS      CLEAR     73  71  93 SE13      29.73S
CHAMBERLAIN    CLEAR     79  70  74 SE16G24   29.60R
HURON          CLEAR     74  71  91 SE14      29.63R
MADISON        FAIR      72  72 100 S9        29.73S
MITCHELL       CLEAR     77  71  82 S13       29.65R
SIOUX FALLS    CLEAR     77  73  87 S15G23    29.73R
WINNER         FAIR      76  67  73 S20       29.60R
YANKTON        CLEAR     77  71  82 S18G26    29.69S
$$

MNZ071-072-080-081-089-090-097-098-221200-
SOUTHWEST MINNESOTA

CITY           SKY/WX    TMP DP  RH WIND       PRES   REMARKS
FAIRMONT       PTCLDY    75  70  84 S12       29.82S
JACKSON        PTCLDY    73  70  88 S13G20    29.82S
LUVERNE        PTCLDY    73  68  83 S8        29.77R
MARSHALL       CLOUDY    76  72  87 S18G25    29.71F
MONTEVIDEO     CLEAR     70  70 100 E3        29.74R FOG
PIPESTONE      PTCLDY    73  72  94 S12       29.76S
REDWOOD FALLS  CLOUDY    75  71  87 S10       29.75F
TRACY          PTCLDY    76  73  90 S13G20    29.75F
WINDOM         PTCLDY    75  70  83 S13G21    29.79S
WORTHINGTON    CLEAR     75  71  87 S16       29.80R
$$

IAZ001>003-012>014-020>022-031-032-NEZ013-014-SDZ071-221200-
NORTHWEST IOWA

CITY           SKY/WX    TMP DP  RH WIND       PRES   REMARKS
CHEROKEE       CLEAR     75  72  90 S12       29.81S
DENISON        CLEAR     75  70  83 S13G23    29.85S
ESTHERVILLE    CLEAR     71  71 100 S10       29.82S
LE MARS        CLEAR     77  72  83 S18G25    29.76S
ORANGE CITY    CLEAR     75  73  94 S13       29.78S
SHELDON        PTCLDY    75  72  88 S12G21    29.77S
SIOUX CITY     CLEAR     75  72  90 SE10      29.77S
SPENCER        CLEAR     74  71  91 S13       29.81S
STORM LAKE     PTCLDY    75  70  83 S16G26    29.83S
$$

ABBREVIATIONS USED IN REMARKS
   TC - TEMPERATURE IN CELSIUS
  WCI - WIND CHILL INDEX
   HX - HEAT INDEX
  VSB - VISIBILITY





USA.gov is the U.S. government's official web portal to all federal, state and local government web resources and services.